Location: Unspecified
(0.0000°N, 0.0000°E)
Time: 02:47:08
(UTC+00:00)

CUBEBUG 2 - Visible Passes

Search period start: 20 March 2019 00:00
Search period end: 30 March 2019 00:00
Orbit: 586 x 699 km, 97.6° (Epoch: 18 March)

Date Brightness Start Highest point End Pass type
(mag) Time Alt. Az. Time Alt. Az. Time Alt. Az.
20 Mar ? 04:51:16 10° NE 04:54:46 21° ESE 04:58:18 10° SSE visible
20 Mar ? 18:42:19 10° WSW 18:43:21 11° WSW 18:44:22 10° W visible
21 Mar ? 05:14:28 10° NNE 05:18:55 43° ESE 05:23:26 10° S visible
22 Mar ? 05:38:23 10° N 05:43:06 87° W 05:47:52 10° SSW visible
24 Mar ? 04:51:34 10° NE 04:55:10 22° ESE 04:58:46 10° SSE visible
24 Mar ? 18:43:01 10° WSW 18:43:39 10° WSW 18:44:17 10° W visible
25 Mar ? 05:14:49 10° NNE 05:19:19 45° ESE 05:23:52 10° S visible
26 Mar ? 05:38:46 10° N 05:43:30 84° W 05:48:16 10° SSW visible
27 Mar ? 04:30:37 10° E 04:31:23 10° ESE 04:32:10 10° ESE visible
28 Mar ? 04:51:52 10° NE 04:55:32 22° ESE 04:59:13 10° SSE visible
29 Mar ? 05:15:10 10° NNE 05:19:43 46° ESE 05:24:15 10° S visible
